Location: Unspecified
(42.3650°N, 71.1030°W)
Time: 19:22:30
(UTC+00:00)

Explorer 11/Cluster Stage 4 - Pass Details

Date: 21 June 2024
Orbit: 465 x 1215 km, 28.8° (Epoch: 13 July)

Event Time Altitude Azimuth Distance (km) Brightness Sun altitude
Rises 05:32:15 0° 256° (WSW) 3,890 - -23.3°
Reaches altitude 10° 05:36:11 10° 238° (WSW) 2,796 - -23.2°
Maximum altitude 05:40:22 17° 200° (SSW) 2,145 - -23.0°
Drops below altitude 10° 05:44:07 10° 161° (SSE) 2,451 - -22.9°
Sets 05:47:16 0° 141° (SE) 3,225 - -22.7°
